GW5240 Weather Reports


time (UTC)temp
C
wind
direction
speed
KPH
gust
KPH
rain 1hr
cm
rain 24hr
cm
rain mn
cm
humidity
%
barometer
mb
20260904160108 28 245 6.4 8.0 0.00 0.00 0.00 78 1012.1
20260904155608 28 35 8.0 11.3 0.00 0.00 0.00 76 1012.0
20260904155102 28 309 6.4 8.0 0.00 0.00 0.00 77 1012.1
20260904154556 28 130 1.6 3.2 0.00 0.00 0.00 77 1011.9
20260904154051 28 350 6.4 8.0 0.00 0.00 0.00 77 1011.9
20260904153550 29 38 8.0 11.3 0.00 0.00 0.00 75 1011.8
20260904153046 29 89 3.2 4.8 0.00 0.00 0.00 74 1011.6
20260904152542 29 155 3.2 4.8 0.00 0.00 0.00 75 1011.7
20260904152038 28 161 1.6 3.2 0.00 0.00 0.00 77 1011.4
20260904151538 28 164 0.0 0.0 0.00 0.00 0.00 78 1011.4
20260904151037 28 147 3.2 4.8 0.00 0.00 0.00 78 1011.5
20260904150532 28 83 1.6 3.2 0.00 0.00 0.00 78 1011.2
20260904150027 27 174 0.0 0.0 0.00 0.00 0.00 80 1011.5
20260904145526 27 349 3.2 4.8 0.00 0.00 0.00 80 1011.2
20260904145022 27 176 3.2 4.8 0.00 0.00 0.00 82 1011.2
20260904144518 26 151 0.0 0.0 0.00 0.00 0.00 84 1011.1
20260904144014 26 146 3.2 3.2 0.00 0.00 0.00 85 1011.2
20260904143509 26 338 3.2 4.8 0.00 0.00 0.00 86 1011.2
20260904143006 25 141 0.0 3.2 0.00 0.00 0.00 87 1011.3
20260904142502 25 152 0.0 0.0 0.00 0.00 0.00 87 1011.3
20260904142001 25 162 0.0 0.0 0.00 0.00 0.00 88 1011.3
20260904141456 25 122 1.6 3.2 0.00 0.00 0.00 88 1011.2
20260904140953 25 183 1.6 3.2 0.00 0.00 0.00 89 1011.1
20260904140452 25 122 1.6 3.2 0.00 0.00 0.00 89 1011.2
20260904135952 25 122 3.2 3.2 0.00 0.00 0.00 91 1011.2
20260904135452 24 140 3.2 3.2 0.00 0.00 0.00 91 1011.1
20260904134948 24 139 1.6 3.2 0.00 0.00 0.00 93 1011.3
20260904134448 24 172 0.0 0.0 0.00 0.00 0.00 94 1011.4
20260904133943 23 137 0.0 0.0 0.00 0.00 0.00 94 1011.3
20260904133437 23 152 0.0 0.0 0.00 0.00 0.00 95 1011.4
20260904132933 23 143 0.0 3.2 0.00 0.00 0.00 96 1011.3
20260904132428 23 155 0.0 3.2 0.00 0.00 0.00 97 1011.1
20260904131928 23 155 0.0 3.2 0.00 0.00 0.00 97 1011.3
20260904131423 23 140 3.2 3.2 0.00 0.00 0.00 97 1011.2
20260904130919 23 315 0.0 3.2 0.00 0.00 0.00 98 1011.1
20260904130418 22 250 0.0 3.2 0.00 0.00 0.00 98 1011.0
20260904125912 22 159 0.0 0.0 0.00 0.00 0.00 98 1011.0
20260904125410 22 161 0.0 0.0 0.00 0.00 0.00 98 1011.1
20260904124908 22 137 0.0 0.0 0.00 0.00 0.00 98 1010.9
20260904124405 22 161 0.0 0.0 0.00 0.00 0.00 98 1010.8
20260904123900 22 161 0.0 3.2 0.00 0.00 0.00 98 1010.6
20260904123355 22 161 0.0 0.0 0.00 0.00 0.00 98 1010.7
20260904122851 22 161 0.0 0.0 0.00 0.00 0.00 98 1010.6
20260904122350 22 160 0.0 0.0 0.00 0.00 0.00 98 1010.8
20260904121844 22 160 0.0 0.0 0.00 0.00 0.00 98 1010.6
20260904121341 21 160 0.0 0.0 0.00 0.00 0.00 97 1010.6
20260904120837 21 160 0.0 0.0 0.00 0.00 0.00 97 1010.5
20260904120333 21 160 0.0 0.0 0.00 0.00 0.00 97 1010.5
20260904115828 21 158 0.0 0.0 0.00 0.00 0.00 97 1010.6
20260904115323 21 168 0.0 0.0 0.00 0.00 0.00 97 1010.4
20260904114823 21 144 0.0 0.0 0.00 0.00 0.00 97 1010.4
20260904114318 21 167 0.0 0.0 0.00 0.00 0.00 97 1010.5
20260904113813 21 163 0.0 0.0 0.00 0.00 0.00 97 1010.1
20260904113312 21 167 0.0 0.0 0.00 0.00 0.00 97 1010.2
20260904112807 21 162 0.0 0.0 0.00 0.00 0.00 97 1010.1
20260904112305 22 157 0.0 0.0 0.00 0.00 0.00 97 1010.3
20260904111758 22 148 0.0 0.0 0.00 0.00 0.00 97 1010.1
20260904111254 22 171 0.0 0.0 0.00 0.00 0.00 97 1010.2
20260904110749 22 162 0.0 0.0 0.00 0.00 0.00 97 1010.3
20260904110248 22 144 3.2 3.2 0.00 0.00 0.00 97 1010.0
20260904105743 22 173 0.0 3.2 0.00 0.00 0.00 97 1010.1
20260904105238 22 154 0.0 0.0 0.00 0.00 0.00 97 1010.2
20260904104733 22 175 0.0 0.0 0.00 0.00 0.00 97 1009.9
20260904104229 22 175 0.0 0.0 0.00 0.00 0.00 97 1010.2
20260904103726 22 176 0.0 0.0 0.00 0.00 0.00 97 1010.2
20260904103220 22 169 0.0 3.2 0.00 0.00 0.00 97 1010.1
20260904102716 22 150 0.0 3.2 0.00 0.00 0.00 97 1010.1
20260904102211 22 174 0.0 0.0 0.00 0.00 0.00 97 1010.2
20260904101708 22 156 0.0 0.0 0.00 0.00 0.00 97 1010.4
20260904101203 22 161 0.0 0.0 0.00 0.00 0.00 97 1010.3
20260904100659 22 161 0.0 0.0 0.00 0.00 0.00 97 1010.0
20260904100155 22 161 0.0 0.0 0.00 0.00 0.00 97 1010.3
20260904095649 22 161 0.0 0.0 0.00 0.00 0.00 97 1010.1
20260904095148 21 161 0.0 0.0 0.00 0.00 0.00 97 1010.1
20260904094644 21 161 0.0 0.0 0.00 0.00 0.00 97 1010.0
20260904094138 21 161 0.0 0.0 0.00 0.00 0.00 96 1009.9
20260904093636 22 161 0.0 0.0 0.00 0.00 0.00 96 1010.0
20260904093135 22 161 0.0 0.0 0.00 0.00 0.00 96 1009.8
20260904092631 21 161 0.0 0.0 0.00 0.00 0.00 96 1009.9
20260904092127 22 161 0.0 0.0 0.00 0.00 0.00 96 1009.9
20260904091623 22 161 0.0 0.0 0.00 0.00 0.00 96 1009.7
20260904091123 22 161 0.0 0.0 0.00 0.00 0.00 96 1009.8
20260904090618 22 160 0.0 0.0 0.00 0.00 0.00 96 1009.6
20260904090115 22 161 0.0 0.0 0.00 0.00 0.00 96 1009.8
20260904085614 22 161 0.0 0.0 0.00 0.00 0.00 96 1009.6
20260904085114 22 161 0.0 0.0 0.00 0.00 0.00 96 1009.4
20260904084610 22 160 0.0 0.0 0.00 0.00 0.00 96 1009.5
20260904084106 22 161 0.0 0.0 0.00 0.00 0.00 96 1009.7
20260904083602 22 160 0.0 0.0 0.00 0.00 0.00 96 1009.4
20260904083057 22 161 0.0 0.0 0.00 0.00 0.00 96 1009.6
20260904082552 22 161 0.0 0.0 0.00 0.00 0.00 96 1009.5
20260904082048 22 161 0.0 0.0 0.00 0.00 0.00 95 1009.6
20260904081543 22 160 0.0 0.0 0.00 0.00 0.00 95 1009.6
20260904081038 22 161 0.0 0.0 0.00 0.00 0.00 95 1009.6
20260904080534 22 161 0.0 0.0 0.00 0.00 0.00 95 1009.6
20260904080030 22 161 0.0 0.0 0.00 0.00 0.00 95 1009.5
20260904075526 22 161 0.0 0.0 0.00 0.00 0.00 95 1009.7
20260904075020 22 161 0.0 0.0 0.00 0.00 0.00 95 1009.3
20260904074515 22 161 0.0 0.0 0.00 0.00 0.00 95 1009.4
20260904074014 22 161 0.0 0.0 0.00 0.00 0.00 95 1009.4
20260904073510 22 161 0.0 0.0 0.00 0.00 0.00 95 1009.5
20260904073006 22 161 0.0 0.0 0.00 0.00 0.00 94 1009.6
20260904072502 22 161 0.0 0.0 0.00 0.00 0.00 94 1009.6
20260904072001 22 161 0.0 0.0 0.00 0.00 0.00 94 1009.5
20260904071457 22 161 0.0 0.0 0.00 0.00 0.00 94 1009.4
20260904070952 22 161 0.0 0.0 0.00 0.00 0.00 94 1009.9
20260904070450 22 160 0.0 0.0 0.00 0.00 0.00 94 1009.7
20260904065945 22 160 0.0 0.0 0.00 0.00 0.00 93 1009.3
20260904065441 23 160 0.0 0.0 0.00 0.00 0.00 93 1009.8
20260904064936 23 161 0.0 0.0 0.00 0.00 0.00 93 1009.8
20260904064432 23 160 0.0 0.0 0.00 0.00 0.00 93 1009.8
20260904063927 23 160 0.0 0.0 0.00 0.00 0.00 93 1009.6
20260904063424 23 160 0.0 0.0 0.00 0.00 0.00 93 1009.7
20260904062918 23 160 0.0 0.0 0.00 0.00 0.00 93 1009.9
20260904062414 23 161 0.0 0.0 0.00 0.00 0.00 92 1009.8
20260904061910 23 161 0.0 0.0 0.00 0.00 0.00 92 1009.7
20260904061406 23 161 0.0 0.0 0.00 0.00 0.00 92 1009.6
20260904060902 23 160 0.0 0.0 0.00 0.00 0.00 92 1009.7
20260904060358 23 160 0.0 0.0 0.00 0.00 0.00 92 1009.6
20260904055853 23 160 0.0 0.0 0.00 0.00 0.00 92 1009.7
20260904055348 23 160 0.0 0.0 0.00 0.00 0.00 92 1009.6
20260904054844 23 160 0.0 0.0 0.00 0.00 0.00 91 1009.6
20260904054340 23 161 0.0 0.0 0.00 0.00 0.00 91 1009.7
20260904053835 23 161 0.0 0.0 0.00 0.00 0.00 91 1009.5
20260904053334 23 160 0.0 0.0 0.00 0.00 0.00 91 1009.5
20260904052830 23 160 0.0 0.0 0.00 0.00 0.00 90 1009.7
20260904052327 23 160 0.0 0.0 0.00 0.00 0.00 90 1009.4
20260904051823 23 160 0.0 0.0 0.00 0.00 0.00 90 1009.6
20260904051318 24 160 0.0 0.0 0.00 0.00 0.00 89 1009.7
20260904050813 24 160 0.0 0.0 0.00 0.00 0.00 89 1009.6
20260904050311 24 160 0.0 0.0 0.00 0.00 0.00 89 1009.5
20260904045810 24 159 0.0 0.0 0.00 0.03 0.03 88 1009.6
20260904045307 24 159 0.0 0.0 0.00 0.03 0.03 88 1009.6
20260904044759 24 165 0.0 0.0 0.00 0.03 0.03 88 1009.5
20260904044257 24 155 0.0 0.0 0.00 0.03 0.03 88 1009.5
20260904043752 24 154 0.0 0.0 0.00 0.03 0.03 88 1009.4
20260904043248 24 157 0.0 0.0 0.00 0.03 0.03 88 1009.4
20260904042743 24 157 0.0 0.0 0.00 0.03 0.03 87 1009.4
20260904042240 25 156 0.0 0.0 0.00 0.03 0.03 87 1009.2
20260904041739 25 161 0.0 0.0 0.00 0.03 0.03 86 1009.4
20260904041235 25 161 0.0 0.0 0.00 0.03 0.03 86 1009.2
20260904040731 25 165 0.0 0.0 0.00 0.03 0.03 86 1009.3
20260904040226 25 165 0.0 0.0 0.00 0.03 0.03 85 1009.2
20260904035722 25 167 0.0 3.2 0.00 0.03 0.03 85 1009.0
20260904035217 25 157 0.0 0.0 0.00 0.03 0.03 84 1009.4
20260904034716 25 160 0.0 0.0 0.00 0.03 0.03 84 1009.5
20260904034212 25 162 0.0 0.0 0.00 0.03 0.03 83 1009.4
20260904033708 25 162 0.0 0.0 0.00 0.03 0.03 83 1009.4
20260904033205 25 156 0.0 0.0 0.00 0.03 0.03 82 1009.5
20260904032701 25 161 0.0 0.0 0.00 0.03 0.03 82 1009.4
20260904032159 26 154 0.0 0.0 0.00 0.03 0.03 81 1009.4
20260904031700 26 167 0.0 0.0 0.00 0.03 0.03 81 1009.4
20260904031155 25 161 0.0 0.0 0.00 0.03 0.03 81 1009.5
20260904030651 26 162 0.0 0.0 0.00 0.03 0.03 81 1009.6
20260904030146 26 157 0.0 0.0 0.00 0.03 0.03 81 1009.5
20260904025642 26 137 0.0 3.2 0.00 0.03 0.03 81 1009.6
20260904025136 26 166 0.0 0.0 0.00 0.03 0.03 80 1009.6
20260904024632 26 149 0.0 0.0 0.00 0.03 0.03 80 1009.5
20260904024127 26 167 0.0 0.0 0.00 0.03 0.03 79 1009.5
20260904023623 26 165 0.0 0.0 0.00 0.03 0.03 79 1009.5
20260904023119 26 166 0.0 0.0 0.00 0.03 0.03 79 1009.5
20260904022614 26 173 1.6 3.2 0.00 0.03 0.03 79 1009.3
20260904022110 26 167 0.0 0.0 0.00 0.03 0.03 79 1009.4
20260904021605 26 167 0.0 0.0 0.00 0.03 0.03 78 1009.5
20260904021100 26 164 0.0 0.0 0.00 0.03 0.03 78 1009.4
20260904020555 26 164 0.0 0.0 0.00 0.03 0.03 78 1009.3
20260904020045 26 164 0.0 0.0 0.00 0.03 0.03 77 1009.5
20260904015540 26 155 0.0 0.0 0.00 0.03 0.03 76 1009.4
20260904015038 26 158 0.0 0.0 0.00 0.03 0.03 76 1009.2
20260904014532 26 166 0.0 3.2 0.00 0.03 0.03 76 1009.3
20260904014028 27 174 0.0 0.0 0.00 0.03 0.03 75 1009.3
20260904013524 27 169 0.0 0.0 0.00 0.03 0.03 75 1008.8
20260904013021 27 39 1.6 3.2 0.00 0.03 0.03 75 1009.2
20260904012520 27 167 0.0 0.0 0.00 0.03 0.03 74 1008.8
20260904012015 27 173 0.0 0.0 0.00 0.03 0.03 73 1008.8
20260904011509 27 170 0.0 0.0 0.00 0.03 0.03 73 1008.9
20260904011004 27 166 0.0 0.0 0.00 0.03 0.03 72 1008.7
20260904010501 28 164 0.0 0.0 0.00 0.03 0.03 71 1008.7
20260904010000 28 152 3.2 3.2 0.00 0.03 0.03 71 1008.6
20260904005456 28 173 0.0 0.0 0.00 0.03 0.03 71 1008.7
20260904004951 28 176 1.6 3.2 0.00 0.03 0.03 71 1008.6
20260904004447 28 163 0.0 0.0 0.00 0.03 0.03 70 1008.5
20260904003947 28 168 0.0 3.2 0.00 0.03 0.03 69 1008.7
20260904003443 28 168 0.0 3.2 0.00 0.03 0.03 69 1008.6
20260904002938 28 175 0.0 3.2 0.00 0.03 0.03 69 1008.6
20260904002435 28 113 0.0 3.2 0.00 0.03 0.03 68 1008.7
20260904001933 28 173 3.2 4.8 0.00 0.03 0.03 68 1008.9
20260904001429 28 166 0.0 0.0 0.00 0.03 0.03 68 1008.7
20260904000923 29 222 4.8 8.0 0.00 0.03 0.03 67 1008.9
20260904000425 29 171 3.2 4.8 0.00 0.03 0.03 66 1008.7
20260903235919 29 140 4.8 8.0 0.00 0.03 0.03 65 1008.8
20260903235415 29 322 3.2 4.8 0.00 0.03 0.03 65 1008.6
20260903234914 29 145 1.6 3.2 0.00 0.03 0.03 65 1008.8
20260903234410 30 173 1.6 3.2 0.00 0.03 0.03 64 1008.7
20260903233906 30 169 3.2 4.8 0.00 0.03 0.03 64 1008.7
20260903233402 30 97 0.0 3.2 0.00 0.03 0.03 64 1008.7
20260903232901 30 146 3.2 4.8 0.00 0.03 0.03 64 1008.7
20260903232356 30 169 1.6 3.2 0.00 0.03 0.03 63 1008.4
20260903231856 30 126 3.2 4.8 0.00 0.03 0.03 62 1008.4
20260903231351 30 179 1.6 3.2 0.00 0.03 0.03 62 1008.4
20260903230846 30 190 0.0 3.2 0.00 0.03 0.03 62 1008.1
20260903230341 30 192 9.7 14.5 0.00 0.03 0.03 61 1007.9
20260903225838 30 147 3.2 4.8 0.00 0.03 0.03 61 1008.0
20260903225333 30 176 0.0 3.2 0.00 0.03 0.03 60 1008.1
20260903224830 30 203 1.6 4.8 0.00 0.03 0.03 60 1008.1
20260903224325 31 84 8.0 14.5 0.00 0.03 0.03 59 1008.0
20260903223821 31 152 3.2 4.8 0.00 0.03 0.03 59 1008.0
20260903223314 31 168 3.2 3.2 0.00 0.03 0.03 59 1008.0
20260903222809 31 159 6.4 11.3 0.00 0.03 0.03 58 1008.1
20260903222308 31 198 3.2 4.8 0.00 0.03 0.03 58 1008.3
20260903221803 31 233 3.2 4.8 0.00 0.03 0.03 57 1008.2
20260903221301 31 192 6.4 8.0 0.00 0.03 0.03 58 1008.2
20260903220800 30 165 3.2 4.8 0.00 0.03 0.03 59 1008.2
20260903220254 31 79 6.4 8.0 0.00 0.03 0.03 58 1008.1
20260903215747 31 158 3.2 4.8 0.00 0.03 0.03 58 1008.4
20260903215244 31 197 6.4 8.0 0.00 0.03 0.03 58 1008.3
20260903214741 31 147 8.0 8.0 0.00 0.03 0.03 58 1008.2
20260903214239 31 174 4.8 4.8 0.00 0.03 0.03 59 1008.3
20260903213732 31 189 6.4 8.0 0.00 0.03 0.03 58 1008.2
20260903213228 31 181 6.4 8.0 0.00 0.03 0.03 58 1008.5
20260903212724 31 191 6.4 8.0 0.00 0.03 0.03 60 1008.6
20260903212220 30 182 3.2 3.2 0.00 0.03 0.03 60 1008.7
20260903211718 30 167 1.6 3.2 0.00 0.03 0.03 62 1008.6
20260903211215 29 164 3.2 4.8 0.18 0.03 0.03 65 1008.6
20260903210711 29 174 0.0 3.2 0.18 0.03 0.03 67 1008.4
20260903210207 28 159 4.8 11.3 0.00 0.00 0.00 65 1008.3
20260903205701 30 180 9.7 16.1 0.00 0.00 0.00 62 1008.2
20260903205200 30 170 4.8 11.3 0.00 0.00 0.00 59 1008.8
20260903204656 30 179 3.2 3.2 0.00 0.00 0.00 59 1009.2
20260903204152 30 180 6.4 11.3 0.00 0.00 0.00 58 1008.9
20260903203647 30 184 3.2 4.8 0.00 0.00 0.00 57 1008.9
20260903203142 31 179 3.2 3.2 0.00 0.00 0.00 56 1008.8
20260903202637 32 187 1.6 3.2 0.00 0.00 0.00 53 1009.0
20260903202133 32 69 6.4 11.3 0.00 0.00 0.00 53 1009.0
20260903201632 32 181 1.6 3.2 0.00 0.00 0.00 54 1008.8
20260903201131 32 165 3.2 4.8 0.00 0.00 0.00 54 1009.0
20260903200626 32 181 1.6 3.2 0.00 0.00 0.00 55 1009.0
20260903200121 32 195 3.2 3.2 0.00 0.00 0.00 55 1009.3
20260903195617 32 154 3.2 3.2 0.00 0.00 0.00 60 1008.9
20260903195113 31 82 11.3 19.3 0.00 0.00 0.00 61 1009.0
20260903194609 32 221 3.2 4.8 0.00 0.00 0.00 61 1009.2
20260903194108 32 207 4.8 4.8 0.00 0.00 0.00 62 1009.6
20260903193605 31 193 3.2 3.2 0.00 0.00 0.00 64 1009.5
20260903193100 30 69 4.8 4.8 0.00 0.00 0.00 65 1009.6
20260903192557 30 182 3.2 4.8 0.00 0.00 0.00 68 1009.6
20260903192057 29 109 1.6 3.2 0.00 0.00 0.00 71 1009.6
20260903191553 30 188 1.6 3.2 0.00 0.00 0.00 69 1009.3
20260903191048 30 188 1.6 3.2 0.00 0.00 0.00 69 1009.2
20260903190547 28 136 3.2 3.2 0.00 0.00 0.00 72 1009.5
20260903190047 28 83 4.8 4.8 0.00 0.00 0.00 73 1010.0
20260903185542 27 155 0.0 0.0 0.00 0.00 0.00 77 1010.1
20260903185038 26 120 3.2 4.8 0.00 0.00 0.00 79 1010.2
20260903184534 26 168 1.6 3.2 0.00 0.00 0.00 79 1010.2
20260903184029 26 149 0.0 0.0 0.00 0.00 0.00 79 1010.1
20260903183528 26 163 0.0 0.0 0.00 0.00 0.00 78 1010.3
20260903183023 26 151 0.0 3.2 0.00 0.00 0.00 77 1010.1
20260903182522 26 150 0.0 0.0 0.00 0.00 0.00 77 1010.2
20260903182019 26 148 0.0 0.0 0.00 0.00 0.00 76 1010.3
20260903181517 26 163 1.6 3.2 0.00 0.00 0.00 74 1010.3
20260903181017 26 168 0.0 0.0 0.00 0.00 0.00 74 1010.2
20260903180513 26 160 0.0 0.0 0.00 0.00 0.00 73 1010.1
20260903180012 26 206 0.0 3.2 0.00 0.00 0.00 73 1010.2
20260903175511 26 179 0.0 0.0 0.00 0.00 0.00 72 1010.4
20260903175010 26 166 0.0 3.2 0.00 0.00 0.00 73 1010.1
20260903174505 27 181 0.0 3.2 0.00 0.00 0.00 72 1010.2
20260903174000 27 166 0.0 0.0 0.00 0.00 0.00 70 1010.1
20260903173455 27 164 0.0 3.2 0.00 0.00 0.00 68 1010.2
20260903172951 28 81 3.2 4.8 0.00 0.00 0.00 67 1010.2
20260903172446 28 148 4.8 4.8 0.00 0.00 0.00 65 1010.5
20260903171941 29 177 3.2 3.2 0.00 0.00 0.00 65 1010.4
20260903171436 29 135 1.6 3.2 0.00 0.00 0.00 64 1010.5
20260903170936 28 214 4.8 8.0 0.00 0.00 0.00 67 1010.6
20260903170431 28 163 3.2 4.8 0.00 0.00 0.00 68 1010.8
20260903165930 27 156 0.0 3.2 0.00 0.00 0.00 69 1010.9
20260903165424 27 171 0.0 0.0 0.00 0.00 0.00 68 1010.9
20260903164918 28 180 3.2 3.2 0.00 0.00 0.00 66 1010.9
20260903164414 29 151 6.4 11.3 0.00 0.00 0.00 63 1010.8
20260903163913 30 175 0.0 0.0 0.00 0.00 0.00 63 1010.8
20260903163409 29 168 3.2 3.2 0.00 0.00 0.00 61 1010.8
20260903162905 29 158 6.4 11.3 0.00 0.00 0.00 62 1010.9
20260903162402 27 178 0.0 0.0 0.00 0.00 0.00 68 1010.8
20260903161857 26 148 3.2 4.8 0.00 0.00 0.00 68 1010.9
20260903161352 26 176 1.6 3.2 0.00 0.00 0.00 69 1010.7
20260903160848 27 104 1.6 3.2 0.00 0.00 0.00 68 1010.7